Domov               UVHVVR             MKGP            O straneh              
ZDRAVSTVENO VARSTVO RASTLIN
  MREŽA AGROMET. POSTAJ
 ► PROGNOSTIČNA OBVESTILA
AGROMETEOROLOŠKI PODATKI -
ARSO
OBVLADOVANJE TVEGANJ ZARADI
NEUGODNIH VREMENSKIH RAZMER
  ► NARAVNE NESREČE
  ► SUŠA/MOČA
  ► NAMAKANJE
  ► ŽLED (gozdarstvo)
KARTOGRAFSKI PRIKAZI
SPLETNE POVEZAVE
PROJEKTI IN PUBLIKACIJE

AGROMETEOROLOŠKA MREŽA: VREMENSKE POSTAJE IN FENOLOŠKA OPAZOVANJA

Pregled podatkov za lokacijo Zavrhek, meteorološka postaja 37907

Pregled senzorjev na lokaciji

ID Ime Zadnja
vrednost
Datum
zadnje
spremembe
Tip
senzorja
1989 Temperatura 2 m (°C) 6,96 °C 15.12.2017 20:00 50YA
1990 Relativna vlaga 2 m (% RH) 99,93 % RH 15.12.2017 20:00 50YA
1991 Padavine (mm) 0,2 mm 15.12.2017 20:00 Rain-O-Matic

Pregled podatkov zadnjih 24 ur

Zap.
št.
Datum in čas Zavrhek
Padavine Relativna
vlaga
2
m
Temperatura
2
m
0 15.12.2017 20:00 0,2 99,93 6,96
1 15.12.2017 19:30 0,4 99,93 6,96
2 15.12.2017 19:00 0,2 99,73 7,08
3 15.12.2017 18:30 0,6 98,93 7,23
4 15.12.2017 18:00 1,6 97,53 7,35
5 15.12.2017 17:30 0,2 96,87 7,59
6 15.12.2017 17:00 0 96,53 7,59
7 15.12.2017 16:30 0,2 95,34 7,81
8 15.12.2017 16:00 0,2 88,79 8,64
9 15.12.2017 15:30 0 76,58 9,87
10 15.12.2017 15:00 0 71,4 10,45
11 15.12.2017 14:30 0 67,13 10,84
12 15.12.2017 14:00 0 68,72 10,94
13 15.12.2017 13:30 0 70,7 10,77
14 15.12.2017 13:00 0 74,85 10,31
15 15.12.2017 12:30 0 76,46 10,23
16 15.12.2017 12:00 0,8 77,92 10,01
17 15.12.2017 11:30 0,4 77,09 10,06
18 15.12.2017 11:00 0 67,45 11,09
19 15.12.2017 10:30 0 65,32 11,11
20 15.12.2017 10:00 0 61,07 11,5
21 15.12.2017 09:30 0 61,54 11,38
22 15.12.2017 09:00 0 64,35 11,11
23 15.12.2017 08:30 0 66,57 11,01
24 15.12.2017 08:00 0 68,79 10,77
25 15.12.2017 07:30 0 67,33 10,77
26 15.12.2017 07:00 0 65,89 10,89
27 15.12.2017 06:30 0 64,96 10,89
28 15.12.2017 06:00 0 65,05 10,79
29 15.12.2017 05:30 0 65,08 10,72
30 15.12.2017 05:00 0 65,1 10,6
31 15.12.2017 04:30 0 65,54 10,38
32 15.12.2017 04:00 0 66,42 10,53
33 15.12.2017 03:30 0 67,96 10,35
34 15.12.2017 03:00 0 70,82 10,01
35 15.12.2017 02:30 0 69,94 10,09
36 15.12.2017 02:00 0 69,99 10,04
37 15.12.2017 01:30 0 70,87 10,06
38 15.12.2017 01:00 0 71,01 10,21
39 15.12.2017 00:30 0 71,26 10,16
40 15.12.2017 00:00 0 70,53 9,99
41 14.12.2017 23:30 0 70,77 9,89
42 14.12.2017 23:00 0 74,16 9,5
43 14.12.2017 22:30 0 73,21 9,65
44 14.12.2017 22:00 0 72,94 9,6
45 14.12.2017 21:30 0 73,75 9,65
46 14.12.2017 21:00 0 73,75 9,77
© 2011 Ministrstvo za kmetijstvo, gozdarstvo in prehrano. Vse pravice pridržane.